CPOD FLT1 (TYVAK-0032) (52772 NORAD) Tracking and Keplerian Element Data

This shows tracking and keplerian element data for the satellite.

Feedback or suggestion? Click here.




ElementValue
Catalog52772
NameCPOD FLT1 (TYVAK-0032)
Epoch Orbit713
Epoch Day192.88454128
Epoch Year2022
RAAN307.2915
Inclination97.5193
Eccentricity0.0015593
Argument of Perigee64.9235
Mean Anonmoly295.3613
Mean Motion15.13800619
Decay Rate3.861E-05
L11 52772U 22057AS 22192.88454128 .00003861 00000+0 21695-3 0 9998
L22 52772 97.5193 307.2915 0015593 64.9235 295.3613 15.13800619 7132

Live tracking and technical data element details for CPOD FLT1 (TYVAK-0032) (NORAD 52772). CPOD FLT1 (TYVAK-0032) can be tracked NOW for your location showing map with azimuth and elevation plus other details from your city location.

Track the satellite on the map from your city or location and see movement details for azimuth, elevation, latitude, longitude, range, height, and movement on the map or in text.







IsCatalogInMostPopularTable: catalog: 52772, numindb: 9
Update: records affected: 1



GetName: 52772 CPOD FLT1 (TYVAK-0032)

Hit Count: updated at: Sun, 14 Aug 2022 00:48:33 GMT